Flag for Greece Weather past 2 weeks in Peristeri, Greece

73 °F

Scattered clouds.

Feels Like: 76 °F
Forecast: 59 / 75 °F
Wind: 6 mph from Southeast

Location: Elefsis Airport

Current Time: Oct 9, 2015 at 7:27:22 PM

Latest Report: Oct 9, 2015 at 6:50 PM

Visibility: N/A

Pressure: 30.01 "Hg

Humidity: 65%

Dew point: 61 °F

Location of PeristeriLocation

Historic Weather in Peristeri — Graph


Peristeri temperature yesterday

Maximum temperature yesterday: 77 °F (at 2:50 PM)
Minimum temperature yesterday: 66 °F (at 2:50 AM)
Average temperature yesterday: 71 °F

Past Weeks' High & Low Weather Summary

High84 °F (Oct 6, 3:50 PM)94% (Sep 26, 11:20 PM)30.30 "Hg (Sep 26, 11:20 PM)
Low59 °F (Oct 4, 4:20 AM)29% (Oct 6, 3:50 PM)29.77 "Hg (Oct 6, 3:50 PM)
Average71 °F65%30.01 "Hg
* Reported Sep 24 6:20 PM — Oct 9 6:20 PM, Peristeri, Weather by CustomWeather, © 2015

Note: Actual official high and low records may vary slightly from our data, if they occured in-between our weather recording intervals... More about our weather records


Peristeri weather history for previous 24 hours

Time TempWeatherWind HumidityBarometerVisibility
6:20 PM
Fri, Oct 9
73 °FScattered clouds.7 mph69%30.01 "HgN/A
5:20 PM77 °FScattered clouds.9 mph61%30.01 "HgN/A
4:50 PM77 °FScattered clouds.10 mph57%29.98 "HgN/A
4:20 PM77 °FScattered clouds.9 mph57%29.98 "HgN/A
3:50 PM77 °FScattered clouds.7 mph54%29.98 "HgN/A
3:20 PM79 °FScattered clouds.9 mph51%29.98 "HgN/A
2:50 PM79 °FPassing clouds.9 mph51%29.98 "HgN/A
2:20 PM77 °FPassing clouds.9 mph54%29.98 "HgN/A
1:50 PM79 °FPassing clouds.9 mph54%30.01 "HgN/A
1:20 PM77 °FScattered clouds.8 mph57%30.01 "HgN/A
12:50 PM77 °FScattered clouds.8 mph54%30.01 "HgN/A
12:20 PM77 °FScattered clouds.7 mph54%30.01 "HgN/A
11:50 AM77 °FScattered clouds.7 mph57%30.01 "HgN/A
11:20 AM75 °FScattered clouds.7 mph57%30.04 "HgN/A
10:50 AM75 °FScattered clouds.No wind57%30.01 "HgN/A
10:20 AM72 °FScattered clouds.No wind61%30.01 "HgN/A
9:50 AM72 °FScattered clouds.No wind65%30.01 "HgN/A
9:20 AM68 °FScattered clouds.No wind73%30.01 "HgN/A
8:50 AM66 °FScattered clouds.No wind73%30.01 "HgN/A
8:20 AM64 °FPassing clouds.5 mph78%29.98 "HgN/A
7:50 AM63 °FPassing clouds.5 mph83%29.98 "HgN/A
7:20 AM61 °FPassing clouds.6 mph88%29.98 "HgN/A
6:50 AM63 °FPassing clouds.No wind83%29.98 "HgN/A
6:20 AM63 °FPassing clouds.5 mph83%29.98 "HgN/A
5:50 AM63 °FPassing clouds.No wind83%29.98 "HgN/A
5:20 AM63 °FPassing clouds.No wind83%29.98 "HgN/A
4:50 AM66 °FPassing clouds.No wind78%29.98 "HgN/A
4:20 AM66 °FPassing clouds.No wind78%29.98 "HgN/A
3:50 AM66 °FPassing clouds.No wind78%29.98 "HgN/A
3:20 AM64 °FPassing clouds.No wind83%29.98 "HgN/A
2:50 AM66 °FPassing clouds.No wind78%29.98 "HgN/A
2:20 AM66 °FPassing clouds.No wind73%29.98 "HgN/A
1:50 AM66 °FPassing clouds.No wind73%29.98 "HgN/A
1:20 AM66 °FPassing clouds.No wind78%29.98 "HgN/A
12:50 AM66 °FPassing clouds.No wind78%29.98 "HgN/A
12:20 AM66 °FPassing clouds.No wind73%30.01 "HgN/A
11:50 PM
Thu, Oct 8
68 °FPassing clouds.No wind69%30.01 "HgN/A
11:20 PM68 °FPassing clouds.No wind69%30.01 "HgN/A
10:50 PM66 °FPassing clouds.5 mph78%29.98 "HgN/A
10:20 PM68 °FPassing clouds.6 mph69%29.98 "HgN/A
9:50 PM68 °FPassing clouds.6 mph73%29.98 "HgN/A
9:20 PM68 °FPassing clouds.7 mph73%29.98 "HgN/A
8:50 PM68 °FPassing clouds.5 mph69%29.98 "HgN/A
8:20 PM68 °FPassing clouds.7 mph69%29.95 "HgN/A
7:50 PM70 °FScattered clouds.7 mph69%29.95 "HgN/A
7:20 PM72 °FPassing clouds.7 mph65%29.95 "HgN/A
Weather by CustomWeather, © 2015

See weather overviewHow to use our weather pages